| time (UTC) | temp F | wind direction | speed MPH | gust MPH | rain 1hr in | rain 24hr in | rain mn in | humidity % | barometer mb |
| 20260504120105 | 48 | 0 | 0.0 | 0.0 | 0.00 | 0.00 | 0.00 | 81 | 1017.6 |
| 20260504081553 | 45 | 0 | 0.0 | 0.0 | 0.00 | 0.00 | 0.00 | 76 | 1017.3 |
| 20260504044546 | 52 | 0 | 0.0 | 1.0 | 0.00 | 0.00 | 0.00 | 54 | 1017.5 |
| 20260504043059 | 52 | 0 | 0.0 | 1.0 | 0.00 | 0.00 | 0.00 | 56 | 1017.4 |
| 20260504041549 | 51 | 0 | 0.0 | 1.0 | 0.00 | 0.00 | 0.00 | 62 | 1017.6 |
| 20260504034558 | 50 | 0 | 0.0 | 1.0 | 0.00 | 0.00 | 0.00 | 61 | 1017.5 |
| 20260504033043 | 50 | 0 | 0.0 | 0.0 | 0.00 | 0.00 | 0.00 | 62 | 1017.5 |
| 20260504031601 | 50 | 0 | 0.0 | 0.0 | 0.00 | 0.00 | 0.00 | 59 | 1017.6 |
| 20260504030050 | 51 | 0 | 0.0 | 0.0 | 0.00 | 0.00 | 0.00 | 67 | 1017.7 |
| 20260504024544 | 52 | 0 | 0.0 | 0.0 | 0.00 | 0.00 | 0.00 | 57 | 1017.6 |
| 20260504023050 | 53 | 0 | 0.0 | 0.0 | 0.00 | 0.00 | 0.00 | 56 | 1017.4 |
| 20260504021557 | 54 | 0 | 0.0 | 0.0 | 0.00 | 0.00 | 0.00 | 52 | 1017.2 |
| 20260504014553 | 55 | 0 | 0.0 | 1.0 | 0.00 | 0.00 | 0.00 | 48 | 1016.7 |
| 20260504013048 | 55 | 0 | 0.0 | 0.0 | 0.00 | 0.00 | 0.00 | 50 | 1016.8 |
| 20260504011547 | 55 | 0 | 0.0 | 0.0 | 0.00 | 0.00 | 0.00 | 47 | 1016.8 |
| 20260504010051 | 56 | 0 | 0.0 | 1.0 | 0.00 | 0.00 | 0.00 | 47 | 1016.6 |
| 20260504004549 | 58 | 0 | 0.0 | 0.0 | 0.00 | 0.00 | 0.00 | 43 | 1016.5 |
| 20260504003059 | 59 | 0 | 0.0 | 0.0 | 0.00 | 0.00 | 0.00 | 41 | 1016.4 |
| 20260504001556 | 60 | 0 | 0.0 | 1.0 | 0.00 | 0.00 | 0.00 | 38 | 1016.3 |
| 20260503234554 | 62 | 0 | 0.0 | 1.0 | 0.00 | 0.00 | 0.00 | 34 | 1016.2 |
| 20260503233057 | 63 | 0 | 0.0 | 3.0 | 0.00 | 0.00 | 0.00 | 33 | 1016.3 |
| 20260503231553 | 63 | 210 | 0.0 | 3.0 | 0.00 | 0.00 | 0.00 | 32 | 1016.2 |
| 20260503230108 | 63 | 0 | 0.0 | 5.0 | 0.00 | 0.00 | 0.00 | 31 | 1016.2 |
| 20260503224558 | 64 | 200 | 0.0 | 3.0 | 0.00 | 0.00 | 0.00 | 30 | 1016.2 |
| 20260503223048 | 64 | 216 | 0.0 | 2.0 | 0.00 | 0.00 | 0.00 | 33 | 1016.5 |
| 20260503221601 | 64 | 0 | 1.0 | 11.0 | 0.00 | 0.00 | 0.00 | 28 | 1016.7 |
| 20260503220053 | 64 | 214 | 1.0 | 5.0 | 0.00 | 0.00 | 0.00 | 27 | 1016.8 |
| 20260503214549 | 65 | 303 | 2.0 | 10.0 | 0.00 | 0.00 | 0.00 | 27 | 1016.8 |
| 20260503213059 | 66 | 169 | 1.0 | 3.0 | 0.00 | 0.00 | 0.00 | 26 | 1017.0 |
| 20260503211606 | 65 | 0 | 1.0 | 9.0 | 0.00 | 0.00 | 0.00 | 27 | 1017.1 |
| 20260503210047 | 65 | 343 | 1.0 | 4.0 | 0.00 | 0.00 | 0.00 | 27 | 1017.1 |
| 20260503204549 | 65 | 301 | 2.0 | 5.0 | 0.00 | 0.00 | 0.00 | 26 | 1017.1 |
| 20260503203052 | 66 | 284 | 0.0 | 4.0 | 0.00 | 0.00 | 0.00 | 27 | 1017.4 |
| 20260503201547 | 64 | 200 | 3.0 | 12.0 | 0.00 | 0.00 | 0.00 | 27 | 1017.5 |
| 20260503200056 | 65 | 210 | 2.0 | 6.0 | 0.00 | 0.00 | 0.00 | 26 | 1017.8 |
| 20260503194544 | 65 | 306 | 2.0 | 8.0 | 0.00 | 0.00 | 0.00 | 26 | 1018.1 |
| 20260503193056 | 65 | 219 | 1.0 | 7.0 | 0.00 | 0.00 | 0.00 | 27 | 1018.1 |
| 20260503191554 | 65 | 269 | 0.0 | 5.0 | 0.00 | 0.00 | 0.00 | 27 | 1018.3 |
| 20260503190050 | 64 | 252 | 0.0 | 7.0 | 0.00 | 0.00 | 0.00 | 26 | 1018.6 |
| 20260503184559 | 64 | 276 | 0.0 | 9.0 | 0.00 | 0.00 | 0.00 | 28 | 1018.7 |
| 20260503183052 | 64 | 0 | 1.0 | 3.0 | 0.00 | 0.00 | 0.00 | 27 | 1019.0 |
| 20260503181607 | 64 | 225 | 0.0 | 3.0 | 0.00 | 0.00 | 0.00 | 27 | 1019.2 |
| 20260503180109 | 63 | 0 | 0.0 | 3.0 | 0.00 | 0.00 | 0.00 | 28 | 1019.4 |
| 20260503174555 | 61 | 0 | 1.0 | 5.0 | 0.00 | 0.00 | 0.00 | 30 | 1019.5 |
| 20260503173100 | 61 | 0 | 0.0 | 4.0 | 0.00 | 0.00 | 0.00 | 28 | 1019.4 |
| 20260503171552 | 61 | 0 | 0.0 | 5.0 | 0.00 | 0.00 | 0.00 | 30 | 1019.7 |